Route Details

Aircraft Information
Group: Boeing 737 Only
Types: B738
Route Data
Distance: 198nm
Duration: 0h 45m
Origin METAR: MMOX 080042Z 14021KT 12SM SCT040 23/07 A3009 RMK 8/500
Dest. METAR: MMMX 080044Z 14010G20KT 10SM SKC 21/04 A3019 NOSIG RMK HZY
Freight Data
(for Feb 8, 2023)
Load Factor:
34%
Manifested Cargo: 18,507lbs
Financial History
Total Freight: 120,901lbs
Average Load: 0lbs/flt
Fuel Used: 14,970lbs
Avg. Fuel Used: 0lbs/flt
Fuel Expense: $9,980
Avg. Fuel Expense: $0
Avg. Fuel Cost: $0/lbs
Total Gross Income: $377,211
Pilot Pay: $787
Total Expenses: $61,962
Total Revenue: $304,544
Average Revenue: $0

Capitol Logistics 710




MMOX
Xoxocotlán International Airport
Oaxaca, MX
MMMX
Benito Juárez International Airport
Mexico City, MX

Activity Log

Date Flight Route Aircraft Duration
08/06/2022 CPX710 MAXIL4 MAXIL UJ33 KODEK UT157 LARLO LARL2A B738 0h 49m
05/31/2022 CPX3134 MAXIL4 MAXIL UJ33 KODEK UT157 LARLO LARL1A B738 0h 53m
03/09/2022 CPX3134 MAXIL4 MAXIL UJ33 KODEK UT157 LARLO LARL1A B738 1h 01m